FREGAT DEB, 46406

Orbit data source: Space-Track

FREGAT DEB, 46406 is space debris in LEO originally from a launch on Mon, 18 Jul 2011 UTC launched from the Tyuratam Missile And Space Complex (TTMTR). Debris objects in space refer to the collection of defunct objects orbiting the Earth. Examples of debris include non-operational satellites, rocket bodies, and fragments generated from explosions, collisions, or faulty payload assembly.

Loading next visibility...
Identifier
46406, 2011-037LM
Orbit
LEO
Country
Flag of CISCIS
Related business
Manufacturer
Lavochkin
Mission
Spacecraft
Bus & Motor
Unknown
Mass
Unknown
Launch date (UTC)
2011-07-18 (15 years ago)
Launch vehicle
Unknown
Launch site
Tyuratam Missile And Space Complex (TTMTR)
Object type
Payload
Rocket body
Debris
Shape & HBR
Unknown shape, 0.1 m
Radar Cross Section
Medium (>0.1 m² and <1 m²)

Expand to show TLE details & history
Last TLE update: 2 weeks ago

TLE from 2 weeks ago
0 FREGAT DEB
1 46406U 11037LM  26151.77162435 -.00000559  00000-0 -14529-2 0  9996
2 46406  51.5822 279.6375 2021610  92.5410 290.6763 10.21312696217326
Epoch: 2026-05-31T18:31Z
TLE epoch observation values (Epoch: 2026-05-31T18:31:08.343Z)
Latitude
-0.00004°
Longitude
112.58419°
Altitude
2,304.573 km
Speed
6.886 km/s
True Right ascension
18h 38m 32s
True Declination
0° 00' 00"
Sunlit
Object was in full shadow at epoch
Visualization orbit readout
Latitude
Unknown
Longitude
Unknown
Altitude
Unknown
Speed
Unknown
Apparent Right ascension
Unknown
Apparent Declination
Unknown
Sunlit
N/A
Visualization observer readout
Local Sidereal Time
19:27:49
Azimuth
Unknown
Elevation
Unknown
Doppler factor
Unknown
Orbital elements
Apogee altitude
4,409.979 km
Perigee altitude
781.619 km
Semi-major axis
8,973.936 km
Eccentricity
0.20216
Inclination
51.5822°
RAAN
279.6375°
Arg. of periapsis
92.541°
True anomaly
267.54011°
Mean anomaly
290.6763°
Eccentric anomaly
279.24375°
Mean motion
2.55311 °/min
Orbital period
141 mins
BSTAR
-0.0014529
Loading maneuver chart data...
Computing Atmospheric mass density...
Loading historical data...
Loading historical data...
Loading historical data...
Loading historical data...
Loading historical data...
Loading historical data...
Loading historical data...

Documentation

Showing up to 5 results
|